Location: Dampvalley
(47.9094°N, 6.1967°E)
Time: 05:28:42
(UTC+00:00)

SO-50 - Pass Details

Date: 01 December 2021
Orbit: 595 x 689 km, 64.6° (Epoch: 19 January)

Event Time Altitude Azimuth Distance (km) Brightness Sun altitude
Rises 18:21:17 0° 312° (NW) 3,028 ? -25.4°
Reaches altitude 10° 18:23:58 10° 298° (WNW) 2,122 ? -25.9°
Maximum altitude 18:27:46 23° 246° (WSW) 1,427 ? -26.5°
Drops below altitude 10° 18:31:35 10° 194° (SSW) 2,132 ? -27.2°
Sets 18:34:18 0° 180° (S) 3,045 ? -27.6°
